Weather Roundup
Issued by NWS

Home | Current Version | Previous Version | Text Only | Print | Product List | Glossary On
Versions: 1 2 3 4 5 6 7 8 9 10 11 12 13 14 15 16 17 18 19 20 21 22 23 24 25 26 27 28 29 30 31 32 33 34 35 36 37 38 39 40 41 42 43 44 45 46 47 48 49 50
000
NZUS93 KARX 271910
HRRWXR

CURRENT HOURLY OBSERVATIONS ACROSS
MUCH OF THE UPPER MISSISSIPPI VALLEY
NATIONAL WEATHER SERVICE LA CROSSE WI
200 PM CDT WED AUG 27 2014


...SOUTHEAST MINNESOTA...


CITY           SKY/WX    TMP DP  RH WIND       PRES   REMARKS
ROCHESTER      CLOUDY    72  57  59 CALM      30.21F
ROCHESTER/MAYO MOCLDY    72  53  50 CALM      30.21S
WINONA         PTSUNNY   73  59  60 CALM      30.19S
AUSTIN         CLOUDY    72  57  60 CALM      30.20S
ALBERT LEA     CLOUDY    72  55  56 SE7       30.20F
DODGE CENTER   CLOUDY    72  57  60 CALM      30.21S
PRESTON        CLOUDY    69  62  77 CALM      30.21S
OWATONNA       PTSUNNY   72  57  60 CALM      30.20F
FARIBAULT      PTSUNNY   75  52  43 N3        30.20F
$$

...ELSEWHERE IN MINNESOTA...


CITY           SKY/WX    TMP DP  RH WIND       PRES   REMARKS
MINNEAPOLIS    PTSUNNY   76  53  44 VRB5      30.19F
INTNL FALLS    MOSUNNY   66  51  58 CALM      30.17F
DULUTH         MOSUNNY   69  47  45 NW6       30.20F
RED WING       MOSUNNY   75  55  50 S7        30.18F
REDWOOD FALLS  NOT AVBL
MANKATO        PTSUNNY   72  55  56 SE8       30.19F
WORTHINGTON    NOT AVBL
FAIRMONT       NOT AVBL
$$

...SOUTHWEST WISCONSIN...


CITY           SKY/WX    TMP DP  RH WIND       PRES   REMARKS
LA CROSSE      PTSUNNY   77  57  50 CALM      30.18S
PRAIRIE DU CHI CLOUDY    74  56  53 SW3       30.18S
BOSCOBEL       CLOUDY    77  56  48 E3        30.19S
LONE ROCK      CLOUDY    80  58  46 CALM      30.18S
PLATTEVILLE    CLOUDY    75  58  54 CALM      30.20R
FORT MC COY    MOSUNNY   74  53  47 NW5       30.19S
CAMP DOUGLAS   PTSUNNY   75  57  53 VRB1      30.18F
VIROQUA        CLOUDY    72  56  56 CALM      30.20S
WIS DELLS      PTSUNNY   74  53  48 S3        30.18S
$$

...ELSEWHERE IN WISCONSIN...


CITY           SKY/WX    TMP DP  RH WIND       PRES   REMARKS
MILWAUKEE      PTSUNNY   71  62  73 NE9       30.17S
MADISON        PTSUNNY   76  57  51 CALM      30.18S
GREEN BAY      PTSUNNY   70  56  61 N8        30.18F
EAU CLAIRE     SUNNY     74  54  49 N5        30.19F
BLACK RVR FLS  FAIR      74  53  48 W7        30.18S
MEDFORD        SUNNY     68  51  54 NW7       30.21S
WAUSAU         SUNNY     71  54  54 NW8       30.18F
WIS RAPIDS     MOSUNNY   74  55  51 W8        30.20F
MARSHFIELD     MOSUNNY   72  56  57 W6        30.19F
RICE LAKE      MOSUNNY   69  52  53 W3        30.23F
$$

...NORTHEAST IOWA...


CITY           SKY/WX    TMP DP  RH WIND       PRES   REMARKS
WATERLOO       CLOUDY    75  58  55 E7        30.17F
DUBUQUE        CLOUDY    75  53  46 CALM      30.20S
DECORAH        NOT AVBL
MASON CITY     CLOUDY    73  59  61 E8        30.20F
CHARLES CITY   CLOUDY    73  57  56 VRB3      30.20F
OELWEIN        CLOUDY    73  57  56 CALM      30.19F
$$

...ELSEWHERE IN IOWA...


CITY           SKY/WX    TMP DP  RH WIND       PRES   REMARKS
DES MOINES     CLOUDY    74  66  76 SE3       30.16F
IOWA CITY      CLOUDY    75  65  70 CALM      30.18F
FORT DODGE     CLOUDY    72  63  73 SE8       30.18F
MARSHALLTOWN   CLOUDY    73  62  68 VRB3      30.16F
CEDAR RAPIDS   CLOUDY    74  64  71 S3        30.17F
$$

...NORTHERN ILLINOIS...


CITY           SKY/WX    TMP DP  RH WIND       PRES   REMARKS
CHICAGO-OHARE  PTSUNNY   80  61  52 E9        30.13F
DUPAGE         SUNNY     84  60  44 VRB3      30.14S
CHICAGO-MIDWAY PTSUNNY   80  64  58 VRB6      30.13F
MOLINE         CLOUDY    79  63  57 N3        30.16S
ROCKFORD       CLOUDY    79  58  48 NW6       30.17S
STERLING       PTSUNNY   81  63  54 NE6       30.16S
PEORIA         CLOUDY    83  67  58 NW5       30.13S
$$

NOTE: "FAIR" INDICATES FEW OR NO CLOUDS BELOW 12,000 FEET WITH NO
SIGNIFICANT WEATHER AND/OR OBSTRUCTIONS TO VISIBILITY. WIND
SPEEDS ARE IN MILES-PER-HOUR.



USA.gov is the U.S. government's official web portal to all federal, state and local government web resources and services.